This is the latest recevied weather packets stored in our database for station/object DL6MAA-11. If no packets are shown the sender has not sent any weather packets the latest 10 day(s).
| Time | Temp. | Humidity | Pressure | Rain* | Wind** | Luminosity | Snow |
|---|---|---|---|---|---|---|---|
| 1778007723 | 13.89° C | 73% | 1005.5 hPa | 0 mm | - | 0 W/m² | - |
| 1778007412 | 13.89° C | 74% | 1005.5 hPa | 0 mm | - | 0 W/m² | - |
| 1778007113 | 13.89° C | 73% | 1005.5 hPa | 0 mm | - | 0 W/m² | - |
| 1778006818 | 13.89° C | 73% | 1005.5 hPa | 0 mm | - | 0 W/m² | - |
| 1778006520 | 14.44° C | 73% | 1005.4 hPa | 0 mm | - | 0 W/m² | - |
| 1778006225 | 14.44° C | 73% | 1005.4 hPa | 0 mm | - | 0 W/m² | - |
| 1778005925 | 14.44° C | 72% | 1005.4 hPa | 0 mm | - | 0 W/m² | - |
| 1778005611 | 14.44° C | 71% | 1004.8 hPa | 0 mm | - | 0 W/m² | - |
| 1778005313 | 14.44° C | 71% | 1004.8 hPa | 0 mm | - | 5 W/m² | - |
| 1778005007 | 15° C | 71% | 1004.8 hPa | 0 mm | - | 5 W/m² | - |
| 1778004710 | 15° C | 72% | 1004.9 hPa | 0 mm | - | 7 W/m² | - |
| 1778004416 | 15° C | 72% | 1004.9 hPa | 0 mm | - | 11 W/m² | - |
| 1778004120 | 15° C | 72% | 1004.9 hPa | 0 mm | - | 12 W/m² | - |
| 1778003826 | 15° C | 72% | 1004.6 hPa | 0 mm | - | 12 W/m² | - |
| 1778003511 | 15° C | 72% | 1004.6 hPa | 0 mm | - | 19 W/m² | - |
| 1778003224 | 15° C | 71% | 1004.6 hPa | 0 mm | - | 19 W/m² | - |
| 1778002922 | 15° C | 72% | 1004.5 hPa | 0 mm | - | 19 W/m² | - |
| 1778002622 | 15° C | 71% | 1004.5 hPa | 0 mm | - | 21 W/m² | - |
| 1778002327 | 15° C | 71% | 1004.5 hPa | 0 mm | - | 21 W/m² | - |
| 1778002013 | 15° C | 71% | 1004.4 hPa | 0 mm | - | 25 W/m² | - |
| 1778001716 | 15° C | 70% | 1004.4 hPa | 0 mm | - | 30 W/m² | - |
| 1778001421 | 15° C | 68% | 1004.4 hPa | 0 mm | - | 35 W/m² | - |
| 1778001124 | 15° C | 68% | 1004 hPa | 0 mm | - | 37 W/m² | - |
| 1778000825 | 15.56° C | 68% | 1004 hPa | 0 mm | - | 39 W/m² | - |
| 1778000507 | 15.56° C | 67% | 1004 hPa | 0 mm | - | 32 W/m² | - |
* Rain since midnight (hover to see other rain measurements)
** Current wind speed in m/s (hover to see current wind gust speed)